Theta_e
322 316 312 311 308 308 305 302 296 292 294 289 284 290 294 297 298 299 299 301 299 301 302 309 303 305 304 304 305 305 308 307 304 298 294 303 324 332 330 330 329 329 328 328 328 330 333 338 346 345 346 345 343 341 340 339 339 341 342 341 341 343 345 342 340 343 345 345 343 340 340 341 342 341 342 341 341 340 340 340 341 342 343 343 343 343 344 344 344 345 345 345 345 344 344 344 343
317 314 309 310 311 305 302 297 290 285 285 286 287 289 291 294 299 297 299 297 299 305 308 313 314 313 312 313 312 310 308 316 306 313 323 329 334 331 331 330 329 328 329 328 328 328 329 333 345 345 346 346 343 341 340 337 336 340 341 341 341 341 341 340 338 341 343 343 342 340 341 341 341 341 341 341 341 341 341 341 341 342 342 343 343 344 344 344 344 344 344 344 345 344 343 343 343
315 314 312 310 308 302 299 297 295 282 284 285 283 289 292 296 297 297 297 297 303 311 311 311 310 308 308 306 306 305 303 323 322 323 327 333 328 329 331 329 329 329 329 326 327 327 328 334 345 346 345 345 344 342 339 338 339 340 341 341 340 339 341 343 343 343 341 338 337 341 342 341 341 341 341 341 342 342 342 341 341 341 341 342 343 343 343 343 344 344 344 344 344 343 343 343 343
312 314 309 305 305 299 294 290 288 285 289 282 283 288 290 296 297 297 298 302 310 306 303 309 308 310 307 304 306 312 312 317 325 327 325 329 330 332 331 330 330 329 328 326 326 327 330 336 345 346 345 345 344 342 340 339 339 340 340 340 340 342 345 345 344 341 337 336 340 342 339 339 341 341 341 341 342 342 342 341 341 341 342 341 342 343 343 343 343 343 344 344 344 343 343 343 342
312 315 309 303 301 300 290 289 286 284 287 285 289 288 290 293 298 297 302 305 306 300 301 307 307 309 312 310 310 304 306 319 327 330 330 331 334 333 330 329 330 329 327 327 327 327 330 340 344 346 345 344 343 342 340 339 340 340 340 340 342 344 345 345 343 339 338 340 343 343 341 341 342 342 341 342 342 342 341 341 341 341 341 341 341 341 342 342 342 343 343 343 344 343 343 343 342
309 308 310 305 303 303 296 291 290 288 288 288 289 291 291 293 298 301 304 302 301 299 301 304 305 305 310 312 312 308 317 315 326 327 332 329 333 333 330 329 330 329 328 326 327 327 329 339 342 345 345 344 343 342 340 340 339 339 340 339 342 346 345 345 344 344 344 344 343 341 340 341 342 342 341 342 342 342 341 341 341 341 341 341 341 341 343 343 343 343 343 342 343 342 342 342 342
310 302 301 302 299 300 293 287 285 285 290 290 293 291 294 295 300 302 301 301 302 305 303 309 309 308 307 308 315 318 319 322 326 327 332 332 333 332 330 330 329 328 327 327 327 327 330 340 344 346 345 343 342 341 340 339 339 339 339 338 337 340 344 344 343 343 342 342 342 342 342 342 342 341 341 341 341 341 341 341 340 340 340 340 340 341 342 342 342 342 342 343 343 342 341 341 341
311 306 302 294 291 294 289 286 287 286 292 291 291 295 295 299 299 300 299 299 300 302 309 309 307 304 305 312 308 317 318 321 325 331 333 334 333 331 330 330 328 328 328 327 327 329 340 339 343 345 345 343 342 342 340 339 339 339 340 338 338 338 342 341 341 341 341 341 341 341 340 340 340 340 340 340 339 340 340 340 340 340 340 340 340 340 340 341 340 342 341 342 341 340 340 341 340
306 305 300 296 292 289 285 289 288 288 290 290 291 294 305 300 299 299 297 298 300 303 307 308 305 301 303 309 307 313 317 323 330 332 333 333 332 331 330 329 329 329 329 328 328 329 331 338 340 343 344 344 342 341 340 339 339 339 338 338 337 337 337 338 339 339 339 339 339 338 338 338 338 339 339 339 339 340 340 340 340 340 340 339 339 339 340 340 340 341 341 341 341 340 340 340 340
303 302 295 292 289 291 285 285 289 289 291 291 293 299 300 299 299 300 298 298 300 306 307 303 303 300 304 307 306 314 318 328 331 331 333 333 331 330 329 329 329 330 330 329 329 330 331 340 338 341 343 344 344 341 340 340 339 338 338 338 337 337 338 337 338 340 338 337 337 337 337 337 338 339 340 341 340 341 340 340 340 340 340 339 339 339 339 339 340 340 341 340 340 339 339 339 339
297 298 296 295 285 286 287 284 285 289 291 290 294 296 300 299 299 298 298 299 302 305 303 307 307 306 308 309 308 312 319 330 331 329 332 331 330 328 327 328 331 332 331 330 329 330 331 332 339 337 340 341 343 344 343 341 339 339 339 340 337 337 337 336 339 341 339 337 336 336 337 339 341 341 341 340 340 340 340 340 340 340 339 338 338 339 339 340 340 340 340 340 340 339 339 338 338
296 294 294 286 285 286 284 287 286 289 289 292 299 300 298 300 298 299 298 301 300 302 303 306 304 307 305 306 308 313 325 328 329 332 331 330 329 327 327 330 333 333 331 330 330 330 329 330 332 338 336 338 339 341 342 342 341 341 340 339 338 337 336 336 339 341 341 341 341 341 341 341 341 341 340 339 340 339 339 339 339 339 338 338 338 339 339 339 339 340 340 339 338 338 338 338 337
295 294 290 289 287 288 287 288 289 292 289 290 298 301 299 299 299 298 298 299 299 302 302 306 311 306 302 307 307 313 323 328 328 332 330 329 328 327 327 330 332 333 330 329 332 330 328 328 330 332 332 333 334 336 337 339 341 341 341 339 338 337 336 336 337 339 340 340 340 340 340 340 340 340 339 339 339 338 338 337 338 338 338 337 338 338 337 338 338 338 338 337 336 336 336 336 336
298 295 293 293 286 286 287 288 286 291 288 293 294 297 300 299 297 298 298 299 299 300 303 306 312 310 308 309 309 312 321 327 329 330 329 328 327 326 327 330 331 332 333 332 332 332 331 330 330 329 330 330 330 333 334 336 338 340 339 339 339 339 338 339 340 340 339 339 339 339 339 339 339 338 338 338 337 337 337 337 337 336 336 336 336 337 337 337 337 337 337 336 335 335 335 335 335
303 297 291 287 287 287 288 291 289 287 289 292 298 299 298 299 296 297 301 299 300 300 308 314 311 302 297 308 305 316 321 325 329 328 328 327 326 326 327 330 331 332 334 335 335 334 335 335 333 330 328 328 328 330 331 336 334 335 336 336 337 339 339 337 336 336 336 336 335 334 334 333 332 333 333 333 335 333 333 331 334 336 335 336 336 336 336 336 336 336 335 335 334 333 333 334 334
300 295 293 293 288 287 289 290 287 288 291 292 295 297 300 298 295 299 299 301 301 306 308 310 309 304 305 306 308 318 323 324 327 327 327 327 326 325 327 329 330 331 333 335 335 335 336 336 335 331 328 327 329 332 333 332 331 331 334 335 335 335 334 333 332 331 329 328 328 328 327 326 326 326 327 326 329 331 330 327 331 336 336 335 335 335 335 336 335 335 334 333 333 331 331 330 330
299 298 294 287 289 288 290 291 290 291 289 290 292 298 301 299 295 299 298 303 305 306 308 310 307 312 311 310 314 319 324 325 326 327 327 327 326 325 326 327 327 328 330 332 333 335 336 336 335 332 330 328 330 333 334 334 332 330 330 330 330 329 330 330 328 324 321 321 321 322 322 320 319 321 321 321 322 323 322 324 329 334 335 334 334 334 334 334 335 335 334 333 331 327 322 323 323
299 294 290 290 288 288 292 293 291 292 292 293 293 295 301 297 295 299 304 304 303 306 307 307 311 310 312 312 316 323 323 325 326 326 326 325 325 323 322 324 324 324 326 328 330 333 334 336 335 333 332 330 332 333 334 334 332 331 330 325 325 325 325 324 322 319 325 317 320 319 318 319 318 317 319 325 320 321 322 323 326 330 334 333 334 333 333 332 333 334 333 332 329 325 318 313 314
293 291 292 293 290 293 295 293 293 294 294 293 293 293 298 301 297 297 299 298 304 304 305 307 310 310 314 316 321 321 323 324 326 327 325 324 324 322 321 322 322 323 324 326 327 331 332 334 336 334 333 332 332 333 333 333 332 332 329 326 323 324 323 319 319 318 316 317 314 315 316 315 316 317 317 319 319 319 321 322 325 328 330 330 331 331 331 332 332 332 329 327 325 319 313 311 313
297 294 292 292 296 293 293 293 295 293 295 294 294 295 294 296 298 298 299 296 301 303 302 304 306 308 311 316 320 321 323 324 326 327 325 325 325 324 322 321 320 321 323 325 326 329 332 333 335 334 333 332 332 333 333 332 332 331 330 327 322 320 319 317 317 316 316 314 314 315 316 316 318 319 323 323 323 320 321 320 321 322 323 321 319 318 319 322 326 325 323 321 316 313 311 311 313
298 293 291 296 295 293 294 293 292 291 292 294 293 292 294 294 297 299 296 300 299 301 302 307 307 309 313 317 319 320 321 323 325 326 325 325 326 325 324 322 320 320 322 324 324 327 330 332 333 334 334 333 332 332 332 331 331 330 329 327 326 321 318 316 316 316 315 315 314 316 317 318 319 320 320 320 320 320 320 320 318 316 314 314 314 313 311 312 312 311 311 312 311 312 312 310 311
297 294 301 297 294 292 293 293 292 291 290 292 291 294 295 295 297 297 300 298 298 302 305 305 307 314 315 317 318 320 321 322 324 325 325 325 325 324 325 322 317 319 322 323 324 326 329 331 331 333 333 333 333 332 331 331 331 329 328 327 325 322 320 318 317 317 317 317 316 315 317 318 319 320 319 317 318 319 319 318 315 312 312 312 313 310 309 311 311 310 309 310 311 310 311 311 309
293 294 301 295 293 293 293 293 293 290 293 293 293 295 294 297 295 295 300 301 298 294 299 306 309 316 319 321 320 320 320 321 323 323 325 325 325 325 325 323 321 320 321 322 324 325 328 330 331 332 332 332 332 333 332 331 331 330 329 327 325 325 322 320 319 317 318 317 317 316 317 317 319 319 318 317 318 317 318 316 316 312 312 312 313 311 310 309 310 311 310 309 309 310 310 309 308
296 295 297 297 293 294 293 292 292 290 292 294 294 295 295 295 295 294 298 299 294 296 296 304 313 316 319 319 320 320 320 321 322 324 325 326 326 326 326 324 323 322 322 322 323 326 326 328 330 331 331 331 331 332 331 330 330 330 330 325 325 323 322 321 320 319 318 318 318 318 317 318 318 318 319 318 318 316 317 316 314 314 311 311 312 310 309 309 309 308 309 308 309 307 308 307 305
296 296 299 294 294 294 294 291 290 290 291 292 295 295 295 295 295 294 296 299 295 301 311 313 316 316 317 319 319 320 320 321 321 322 323 326 327 328 327 328 326 325 323 323 323 324 326 328 329 329 330 330 331 332 330 330 330 330 330 328 326 323 322 322 321 319 319 318 318 318 317 317 315 317 318 319 317 317 316 314 314 315 312 311 311 312 310 307 306 306 307 306 303 304 305 306 306
299 298 297 294 294 295 294 292 290 290 292 293 296 294 293 292 294 294 297 297 295 307 313 314 315 315 316 318 319 319 319 320 321 321 322 324 325 326 327 328 328 327 326 326 325 324 325 327 328 328 329 330 331 332 330 329 329 328 329 329 328 324 323 321 319 320 320 319 319 318 318 318 318 317 316 315 317 317 316 315 315 315 314 313 310 313 307 306 307 305 304 304 306 304 306 305 305
296 298 297 296 295 295 294 295 291 290 293 291 295 293 294 293 294 296 294 294 305 311 311 311 314 315 316 317 319 319 320 320 320 321 320 318 321 324 326 328 328 328 329 328 328 326 325 326 326 327 329 328 330 330 330 328 328 328 329 329 329 327 326 322 320 320 319 320 320 318 318 318 318 317 316 315 315 314 314 314 315 315 313 312 310 311 306 306 306 307 306 307 306 305 306 305 306
295 294 294 293 294 295 294 293 292 292 295 290 294 292 292 293 294 297 296 298 305 308 309 311 311 314 316 317 318 319 320 321 321 319 319 319 320 323 325 326 327 328 328 328 330 330 327 327 327 327 327 327 328 329 329 328 327 328 328 329 328 328 327 324 321 320 319 320 319 319 319 318 318 317 317 315 315 314 312 312 312 312 314 310 309 309 308 306 307 307 306 306 306 307 305 305 302
295 295 294 293 294 295 294 294 294 293 294 291 291 292 292 292 293 297 294 299 300 307 310 311 311 313 314 315 316 318 319 320 319 320 321 322 322 323 323 325 327 327 329 329 330 330 329 330 330 329 328 327 327 328 329 328 328 328 328 328 328 327 326 323 321 321 321 320 319 319 319 319 318 318 317 316 315 315 314 312 310 311 312 312 308 308 308 307 308 308 307 304 305 305 305 307 303
296 295 292 293 292 293 294 293 292 293 293 290 293 286 287 291 296 293 298 301 301 304 307 310 311 311 313 314 315 316 316 315 318 320 321 322 322 322 323 323 325 326 326 327 328 328 330 331 332 332 330 328 327 328 328 329 329 328 327 327 326 326 325 323 321 321 321 320 320 319 319 318 318 317 316 315 314 314 314 313 312 312 311 309 308 307 309 307 308 307 306 307 307 306 306 303 304
293 292 294 290 290 290 293 293 292 293 292 291 293 287 287 290 294 294 297 301 300 301 305 309 310 310 312 313 314 315 316 317 319 320 320 321 322 322 322 323 323 325 324 324 325 327 327 329 331 332 331 330 327 328 328 330 330 329 327 325 324 323 323 322 322 321 320 321 321 320 319 318 318 317 316 316 314 314 313 313 312 314 311 308 308 307 308 306 306 309 305 308 304 305 303 303 304
289 292 289 288 290 290 292 294 292 294 293 291 293 287 290 294 294 291 289 299 298 299 301 306 309 310 311 312 313 315 316 316 317 316 319 320 321 321 321 323 323 323 324 324 325 325 326 327 328 331 331 331 330 330 330 331 331 330 328 323 324 323 323 322 322 322 321 321 321 321 320 319 318 318 317 315 315 314 314 313 314 312 309 309 308 306 307 309 307 308 306 309 308 308 305 307 303
287 288 283 286 286 289 290 293 292 293 293 292 291 288 287 291 291 288 288 298 299 298 298 302 305 307 309 311 313 314 314 314 314 316 318 319 320 322 322 322 323 324 324 324 324 324 325 325 325 328 329 331 332 331 331 331 331 329 328 325 325 324 323 323 323 322 321 321 321 321 321 320 319 318 317 316 316 315 314 314 313 312 309 310 308 307 307 309 309 310 310 308 311 311 307 308 309
288 284 284 286 288 288 288 291 292 293 293 292 290 288 288 293 290 288 290 296 297 297 298 298 302 305 307 309 310 312 313 314 314 316 318 318 320 321 322 320 322 323 323 323 324 324 325 325 325 326 328 329 331 332 331 331 331 330 328 326 323 324 324 324 323 322 322 321 321 321 321 320 319 319 319 318 318 318 318 317 315 312 311 310 310 309 312 311 312 313 313 310 310 311 310 310 311
287 285 283 284 285 288 290 290 291 292 291 291 291 288 290 296 295 292 290 293 298 298 298 296 298 302 305 306 308 309 311 312 315 317 318 318 319 320 321 321 321 321 323 323 323 324 324 324 324 323 325 327 328 330 330 331 331 330 330 328 326 325 324 324 323 322 322 322 321 321 321 320 319 319 319 319 320 319 318 317 317 315 314 314 314 313 314 313 312 312 312 311 306 310 312 312 311
291 288 287 284 284 286 287 290 289 292 290 288 288 288 290 294 295 294 290 291 295 297 295 292 291 296 301 303 305 307 309 311 315 315 314 316 318 320 320 321 321 321 322 322 321 322 322 323 323 323 323 325 327 328 329 330 330 328 327 326 326 326 326 324 324 324 322 322 321 321 320 320 319 320 321 320 320 319 318 317 317 316 316 315 315 314 314 313 313 312 312 310 309 309 308 310 309
291 288 286 285 285 286 287 286 289 290 289 287 288 288 290 293 295 291 288 288 289 289 291 294 295 293 295 299 302 304 306 309 312 311 312 313 316 319 320 320 320 319 320 321 321 321 322 323 322 322 323 323 325 326 328 329 327 328 328 327 325 327 327 327 326 325 324 323 321 321 322 322 322 321 321 321 320 318 319 318 317 314 316 316 316 316 316 315 315 314 312 309 309 309 310 309 308
289 286 284 285 284 284 286 289 290 289 290 285 285 287 288 291 294 293 287 288 289 290 291 292 294 294 293 294 297 299 303 303 301 303 305 310 313 315 317 318 317 318 319 320 321 321 322 322 322 323 323 322 324 325 327 328 330 330 328 328 328 328 327 326 326 326 325 323 321 322 323 324 324 323 322 322 321 321 320 318 317 317 316 317 317 317 315 312 312 312 310 309 307 309 309 308 307
287 287 284 283 284 284 286 287 289 288 289 287 285 287 289 291 293 295 289 290 289 291 292 294 294 294 293 291 292 295 297 299 300 301 303 306 309 312 315 317 319 320 321 321 322 322 321 322 322 323 323 322 323 324 326 327 328 329 329 329 329 326 326 329 329 327 324 324 323 323 324 325 325 324 323 322 323 322 322 320 319 319 318 317 315 314 314 313 313 312 310 311 309 307 309 309 308
286 284 282 283 283 285 285 288 289 289 288 286 283 284 287 290 292 292 290 290 291 291 291 293 294 294 294 294 294 294 294 296 298 300 300 303 306 309 312 315 318 319 320 320 321 321 322 322 322 323 323 322 323 323 322 326 326 326 327 326 325 328 326 323 326 326 326 325 324 323 323 324 324 325 324 324 323 323 322 321 320 318 317 316 317 316 314 314 312 311 311 311 310 307 303 307 308
286 286 283 282 284 285 287 286 286 287 287 285 285 285 287 288 290 292 290 287 288 290 289 290 290 292 295 294 293 293 294 295 297 298 298 299 302 306 310 313 316 317 319 320 321 322 323 322 323 323 323 323 323 322 322 323 321 319 320 317 317 318 316 319 322 324 326 324 325 325 325 323 323 324 325 324 323 324 323 323 321 320 318 316 316 316 316 315 314 313 313 311 310 312 311 308 305
286 286 286 284 283 285 285 285 286 282 280 284 286 280 281 283 286 289 292 285 287 288 290 291 292 292 292 292 294 295 295 295 296 297 298 298 300 303 306 310 313 316 318 320 321 322 322 323 322 323 323 324 324 323 322 322 322 323 322 322 320 321 322 320 320 321 323 324 325 326 326 325 324 323 323 324 323 322 323 323 323 321 319 317 316 318 318 317 314 313 313 313 312 311 313 312 309
285 287 288 287 286 285 285 285 286 281 280 285 284 283 278 282 286 288 287 283 286 287 286 289 291 293 291 293 294 295 295 296 295 295 295 295 297 298 302 307 311 314 317 319 320 321 322 323 323 323 323 324 324 323 322 321 322 323 323 324 324 323 323 325 325 322 326 326 326 326 326 325 325 324 323 324 324 323 323 323 322 321 320 319 316 317 316 316 317 316 314 312 313 312 310 310 309
284 287 288 288 286 285 284 285 285 281 282 284 284 283 278 280 287 287 283 283 285 286 287 288 289 291 292 293 294 295 296 296 296 296 295 295 296 297 299 303 308 313 316 318 319 320 321 321 322 322 323 322 324 323 322 323 323 323 322 322 323 323 323 324 323 319 319 321 325 325 325 325 324 325 324 324 324 324 322 323 322 322 321 320 317 317 317 316 315 315 314 314 313 310 310 310 310
284 286 289 287 288 287 286 285 282 281 282 280 281 283 281 278 281 283 283 286 287 287 288 288 290 291 292 292 294 295 295 296 295 296 296 295 295 296 298 300 304 309 313 316 318 320 321 321 321 322 322 322 322 322 322 322 322 323 323 323 322 322 323 322 313 313 316 316 322 323 324 324 324 324 325 324 324 324 321 322 322 322 321 320 316 317 317 316 315 315 313 311 311 311 311 311 311
286 287 290 289 288 288 287 282 283 281 279 278 280 281 279 281 280 284 283 284 285 286 286 288 289 291 292 292 292 293 293 293 294 294 295 296 295 295 296 297 297 304 310 314 316 318 319 320 319 320 321 322 322 322 321 322 322 321 323 322 322 322 320 314 312 313 315 313 318 318 321 323 322 322 323 324 323 323 323 322 322 322 321 321 316 319 317 315 315 314 315 314 313 311 309 311 311
288 290 289 288 286 284 282 283 279 277 273 279 281 281 281 278 282 286 285 286 287 288 287 287 287 288 289 290 291 292 292 292 293 293 294 295 295 294 293 295 297 298 305 310 313 316 317 318 319 318 320 321 320 321 321 321 322 322 323 323 322 322 320 318 315 313 313 311 316 314 317 320 321 322 322 321 322 322 322 320 322 322 322 318 317 317 318 318 316 315 315 313 311 310 309 309 308
290 286 285 288 285 284 284 282 282 276 272 276 278 279 280 277 278 282 286 285 283 290 289 291 291 291 292 288 288 289 289 289 290 291 292 293 292 292 291 294 294 296 300 306 311 313 314 316 317 318 319 319 320 321 321 322 322 322 322 323 322 322 321 318 318 318 314 314 313 313 313 314 317 319 320 321 321 321 320 321 319 322 320 321 320 319 318 317 317 315 314 313 312 310 310 309 310
285 285 287 284 280 282 278 280 276 276 273 278 276 278 278 280 282 285 284 285 286 284 288 290 290 290 290 289 288 289 289 289 290 292 292 292 292 293 292 293 292 293 298 303 308 311 313 315 316 317 318 319 320 320 320 321 322 322 322 322 322 322 321 320 319 319 316 315 313 313 310 311 313 314 317 319 320 321 320 321 321 321 321 320 319 319 318 317 315 315 315 313 312 311 311 311 310
284 285 283 282 277 277 276 276 270 270 276 277 279 279 278 280 281 289 289 291 291 290 288 289 290 290 291 291 290 290 290 290 292 293 293 293 292 292 292 293 294 295 296 300 304 308 310 313 314 316 318 318 318 319 320 320 321 321 322 322 322 321 321 320 319 319 317 316 315 314 313 314 313 315 316 317 320 321 320 321 321 321 321 321 319 319 318 317 316 315 314 313 312 312 310 310 310
285 284 287 284 282 277 276 275 276 276 276 276 277 277 276 277 283 284 290 292 290 287 287 287 287 288 289 288 288 289 290 291 291 291 292 293 293 291 292 292 293 293 294 297 301 305 307 310 312 313 315 316 316 317 318 319 320 320 320 321 321 320 320 319 319 318 317 315 314 314 313 312 313 314 315 317 317 319 320 320 320 320 320 319 317 316 315 315 314 312 311 312 311 310 309 309 308
283 282 284 281 284 281 276 272 273 271 273 273 273 278 278 282 283 286 285 285 287 288 288 287 288 289 287 287 288 290 292 293 292 291 292 291 291 292 293 293 293 292 293 294 297 302 305 308 309 312 314 315 314 314 317 318 319 318 317 318 318 317 314 316 315 313 315 315 314 314 313 312 313 312 311 312 315 318 318 318 317 318 318 317 315 315 314 312 311 310 308 309 308 307 308 307 305
282 283 283 284 283 281 275 274 276 273 272 275 272 277 280 280 287 292 287 284 287 287 287 286 287 287 285 287 289 289 291 291 290 290 291 292 291 290 292 293 294 293 293 294 296 299 303 305 306 307 309 307 310 311 314 315 315 314 314 315 315 314 314 315 315 313 314 313 313 313 312 311 310 309 309 309 311 313 316 317 316 316 315 315 314 314 313 312 308 307 307 307 306 305 306 306 304
283 279 284 284 284 282 279 274 268 271 271 274 273 280 278 279 281 284 285 286 291 291 288 286 285 284 285 289 290 290 290 289 289 288 288 289 290 291 291 292 293 294 294 294 295 295 298 301 303 305 305 307 306 308 310 311 311 312 312 312 313 314 315 314 314 314 312 311 307 308 305 306 307 307 306 304 307 309 311 308 314 312 312 312 313 312 311 311 309 306 303 304 305 305 304 301 301
286 282 286 287 278 278 277 273 269 267 268 268 269 274 275 278 283 281 284 285 288 288 289 287 288 287 286 287 287 287 286 287 288 289 288 289 289 290 290 292 292 293 294 294 294 294 294 295 297 301 304 305 306 306 306 307 309 312 312 312 312 312 313 313 312 311 310 310 308 307 308 309 303 303 303 304 305 307 307 306 308 306 305 307 308 308 307 307 307 305 303 302 300 302 300 298 298
285 285 284 283 282 279 275 278 272 274 269 268 270 267 279 280 280 281 285 282 285 285 284 286 287 286 285 285 286 287 287 287 288 288 288 288 289 289 290 292 293 293 293 294 294 294 295 295 295 295 297 298 299 302 304 307 307 310 310 309 309 311 311 312 310 310 309 310 308 307 306 305 306 303 305 305 305 304 303 302 298 300 299 300 300 299 302 304 303 302 301 298 298 300 299 298 295
281 281 281 283 281 281 279 277 275 276 264 263 266 270 276 279 284 287 290 291 291 291 291 288 288 287 286 285 286 286 287 287 287 287 288 289 288 288 290 291 291 293 293 293 293 295 295 293 294 295 298 298 300 301 303 306 305 307 307 309 309 309 308 307 307 308 309 308 308 306 308 307 303 303 302 301 301 301 300 298 297 297 298 297 298 294 294 296 297 295 293 294 295 297 296 293 294
283 282 281 283 279 278 279 278 277 270 273 270 266 275 279 280 284 289 289 291 290 291 292 289 286 286 287 287 286 286 287 288 287 287 287 288 287 289 291 290 290 293 294 295 296 296 295 294 293 294 295 296 298 299 303 305 305 306 306 307 307 306 306 306 307 307 308 307 306 306 304 302 303 297 299 299 297 296 295 296 296 294 293 295 295 293 290 294 294 293 290 294 293 295 294 292 292
Wind_Speed
6 5 4 0 2 2 2 7 1 3 2 0 1 1 1 0 1 1 1 1 2 1 1 1 3 4 2 3 7 4 1 7 6 6 3 1 1 5 5 8 6 6 5 3 1 0 1 0 8 11 11 11 12 10 9 9 9 11 10 11 11 13 13 13 12 14 15 15 16 15 14 15 15 16 16 16 16 16 15 15 16 17 17 16 17 17 17 17 17 18 18 18 17 17 17 18 18
3 4 2 1 1 2 1 2 4 3 6 2 3 1 2 2 1 4 6 4 2 2 1 5 8 6 6 9 7 4 2 2 5 1 2 2 6 4 5 8 8 9 4 3 1 2 2 1 10 12 11 10 11 10 10 9 9 11 11 11 11 11 12 13 12 13 14 14 14 14 15 15 15 15 16 16 16 16 15 15 15 16 16 16 17 17 17 17 17 17 17 17 17 17 17 17 17
3 6 1 3 3 5 2 4 1 1 2 0 3 4 1 2 4 4 5 3 2 5 3 4 4 2 2 3 2 1 3 2 2 2 3 5 9 4 5 5 6 6 5 2 2 3 1 2 10 11 12 11 11 10 9 10 9 10 9 9 10 9 11 12 12 13 12 12 12 14 14 14 14 15 15 15 16 16 15 14 14 15 16 16 16 17 17 17 17 17 17 16 16 16 17 17 17
2 3 0 3 2 4 1 3 4 3 0 3 3 3 2 4 5 4 3 3 6 3 1 0 2 1 1 2 1 2 1 1 2 5 6 8 2 8 5 6 6 4 4 3 2 2 3 2 10 10 12 11 11 9 9 11 10 10 10 10 9 9 11 12 12 12 11 10 13 14 13 13 14 14 14 15 15 15 14 14 14 14 14 15 16 16 16 16 16 16 16 16 17 16 17 17 17
2 2 2 3 3 1 2 1 3 2 1 5 1 4 3 4 4 3 3 5 4 1 1 0 3 3 0 2 1 1 3 0 4 2 4 2 8 8 6 5 5 5 4 3 3 3 2 4 10 9 11 11 11 10 9 9 10 11 10 9 9 8 10 10 11 12 11 12 14 14 13 13 13 13 14 14 14 14 14 13 14 14 14 15 15 15 15 16 16 16 16 16 16 16 17 17 17
3 2 3 2 0 2 4 1 1 1 4 5 0 2 3 5 6 6 5 3 3 2 2 1 3 4 1 1 2 0 2 4 4 1 6 4 10 9 8 6 6 5 4 3 3 3 2 5 7 9 11 11 11 10 9 10 11 11 10 9 11 13 12 10 10 12 13 13 13 13 12 12 13 13 13 14 13 14 14 13 13 13 14 14 14 15 15 15 16 16 15 15 16 16 17 17 16
1 3 5 3 2 4 4 2 2 3 4 6 1 2 6 4 5 7 3 0 1 0 2 0 1 4 3 1 1 0 0 1 3 2 3 7 11 9 8 7 6 5 4 3 3 3 2 5 6 7 9 11 12 10 10 10 10 10 10 10 7 10 12 12 11 12 12 12 13 13 13 12 13 13 13 13 13 13 14 13 13 13 13 13 13 14 14 15 15 15 15 16 16 16 16 16 16
1 1 1 1 1 2 1 1 2 5 1 5 1 2 4 7 5 5 6 3 2 2 0 2 1 2 0 2 2 1 2 1 2 6 9 9 10 9 7 8 7 5 4 3 3 3 3 5 6 7 8 11 11 10 10 9 9 10 10 10 9 8 11 10 11 11 11 11 12 12 12 12 12 12 12 12 12 13 13 13 12 13 13 13 13 13 14 14 14 14 15 15 15 15 15 15 15
5 6 0 4 1 3 2 1 2 2 5 2 5 5 4 5 6 6 5 2 1 0 3 3 3 1 2 1 1 2 3 2 4 10 10 10 11 9 7 7 9 7 4 4 3 3 3 5 6 6 6 10 10 11 10 10 9 10 10 10 8 7 8 9 10 9 10 10 10 10 11 11 11 11 11 12 12 12 12 12 12 12 12 12 12 13 13 13 13 14 15 15 14 14 14 14 14
1 2 1 2 3 1 3 3 1 3 2 2 2 1 4 5 4 1 4 2 4 5 3 1 1 1 3 3 1 2 1 1 7 10 9 10 10 9 8 7 7 10 6 4 3 3 3 5 7 7 7 7 8 11 10 9 9 9 10 9 9 8 8 7 10 10 9 9 9 9 10 10 10 11 11 11 12 12 12 12 12 12 12 11 12 13 12 13 13 14 14 14 14 14 13 13 13
1 5 2 2 2 1 3 4 3 3 2 4 3 4 4 4 5 2 0 1 1 5 2 3 3 3 3 2 2 2 1 4 10 10 10 10 9 9 7 6 6 8 8 6 4 3 3 4 7 8 7 7 7 6 7 7 9 9 10 10 9 9 8 7 11 11 10 9 8 9 10 10 11 11 11 11 11 11 11 12 12 12 11 11 12 12 12 12 13 13 14 13 13 12 12 12 12
1 2 2 3 2 6 4 2 2 6 6 1 1 1 3 7 3 3 1 5 2 0 4 5 2 5 3 1 2 2 3 5 7 9 10 9 8 7 7 6 8 7 5 6 4 3 3 3 4 7 8 7 8 6 5 4 8 9 9 9 9 9 8 7 11 11 10 10 9 9 11 11 11 11 11 11 10 11 11 11 11 11 10 10 11 11 12 12 13 13 13 12 12 12 11 11 11
3 1 5 3 1 1 1 0 2 3 4 3 4 1 3 6 5 4 3 1 2 4 3 6 4 3 3 3 3 2 5 8 3 9 9 8 7 6 5 7 8 6 4 4 5 4 3 3 4 4 6 8 7 7 7 7 8 8 8 9 8 8 8 7 7 10 9 9 10 11 12 12 11 11 11 11 9 10 11 9 9 10 10 9 10 11 11 11 12 12 13 12 12 11 11 10 9
3 4 5 2 2 1 2 1 1 1 3 1 1 2 4 3 3 5 6 4 4 5 2 4 4 4 2 1 2 2 6 6 4 8 7 6 6 6 6 7 9 7 6 6 6 5 4 3 3 4 5 5 4 6 8 8 7 7 6 7 6 6 6 7 9 10 9 9 10 9 9 9 10 9 10 9 9 8 8 7 7 9 9 8 9 10 9 9 10 11 11 11 12 12 11 9 8
0 2 5 4 1 1 2 1 2 2 3 1 2 6 3 1 4 4 7 6 7 2 2 1 3 2 4 7 4 7 7 7 7 6 8 6 6 6 6 7 10 8 8 6 6 6 5 4 3 3 4 5 5 5 4 6 8 6 6 6 6 7 7 7 8 8 8 8 9 8 9 9 9 9 9 9 8 8 8 7 6 5 8 9 8 8 8 8 9 10 10 11 11 12 11 9 7
3 4 3 2 1 2 2 2 1 2 4 3 0 3 5 0 1 5 4 3 1 1 1 3 0 1 1 7 1 4 9 8 7 7 8 9 6 5 5 7 8 8 6 6 7 6 4 5 4 3 4 5 4 4 5 4 7 7 6 7 7 7 7 7 8 8 9 8 8 9 8 7 7 6 8 6 8 8 7 5 6 5 6 8 7 7 6 7 8 9 9 10 10 10 10 10 8
1 2 0 3 2 2 2 2 4 2 2 3 2 4 7 4 1 0 1 2 4 3 1 1 2 1 3 2 2 3 10 10 8 9 9 8 7 6 5 6 6 7 5 6 7 7 6 6 6 4 3 5 5 5 4 5 4 7 5 7 8 7 7 7 7 8 8 7 7 7 7 5 4 4 4 4 6 4 7 7 7 7 7 6 6 6 5 6 7 8 9 9 9 9 7 9 9
1 1 4 1 3 3 3 4 7 1 0 1 3 4 7 3 1 2 2 4 2 0 2 3 0 1 2 2 0 6 12 13 10 12 9 8 7 8 7 6 7 7 7 7 7 7 7 6 6 5 5 5 5 5 4 4 4 4 4 3 4 4 5 6 5 4 5 4 6 5 4 3 3 3 3 5 4 4 5 7 7 7 6 6 5 5 5 5 6 7 8 8 8 8 8 5 5
2 2 2 5 4 4 3 2 4 1 2 1 2 1 3 7 9 4 4 1 2 1 3 1 1 2 3 2 7 11 13 12 11 12 13 11 9 10 9 7 7 7 8 6 6 7 7 6 6 5 5 5 6 5 4 4 4 4 3 4 3 4 4 4 3 3 3 3 3 3 3 3 3 2 3 3 3 5 5 6 7 7 6 6 6 6 6 5 6 8 7 7 7 7 5 5 4
1 3 2 2 3 4 4 2 2 5 1 2 1 1 2 2 3 1 3 4 1 7 6 2 3 5 1 5 7 10 12 13 11 12 14 13 10 9 10 10 8 8 7 7 7 6 6 7 8 7 6 6 7 5 4 4 4 4 3 4 4 4 4 3 3 3 3 3 3 3 3 2 2 2 3 6 5 3 3 4 6 7 6 6 6 3 5 6 7 6 6 6 4 3 3 4 3
0 1 3 0 0 1 1 1 5 5 2 1 1 0 3 3 4 4 4 5 5 6 7 11 13 8 8 9 10 10 12 12 12 11 13 13 11 9 9 9 9 7 6 5 5 8 10 9 7 8 6 5 7 6 6 5 5 4 4 4 4 4 3 3 3 3 3 3 3 3 2 2 3 2 2 1 2 2 2 2 1 2 2 2 4 2 2 2 3 2 2 3 4 4 4 3 2
1 1 2 2 0 1 4 0 2 1 4 3 0 4 6 2 0 4 10 9 10 11 12 10 6 9 13 13 12 11 13 14 13 13 14 15 15 12 9 6 3 4 4 7 9 7 9 8 8 7 7 7 7 7 7 6 5 5 5 4 4 3 4 4 3 3 3 3 3 3 3 3 3 2 2 1 1 2 2 1 1 0 1 1 2 1 1 1 1 2 2 3 3 2 3 2 1
3 1 1 2 1 2 2 2 1 0 1 2 1 4 2 6 2 2 6 12 2 3 2 8 5 10 12 13 14 12 14 15 15 15 14 14 14 12 11 8 8 8 7 8 7 7 7 8 8 7 10 9 9 5 5 4 4 3 4 5 5 5 4 4 4 4 4 3 3 4 4 3 3 3 2 2 2 2 2 2 1 0 1 1 1 1 1 1 1 1 2 2 2 3 3 2 2
2 4 2 2 3 5 4 4 2 2 6 5 4 1 3 5 6 0 5 5 1 4 4 5 6 6 8 13 14 18 18 18 19 17 15 15 14 14 11 10 8 6 7 7 7 7 8 10 9 10 9 9 9 8 8 8 7 5 5 5 5 5 5 5 5 4 4 4 4 4 5 4 4 4 4 3 3 2 3 3 1 1 1 0 1 1 1 0 1 1 1 2 3 2 3 2 3
2 1 2 3 2 4 5 4 2 1 4 3 1 3 4 7 5 3 8 7 3 4 4 4 8 7 7 10 14 13 14 13 12 11 8 8 10 9 8 7 8 7 9 8 7 8 9 9 9 11 10 10 8 7 8 7 7 7 5 5 5 5 5 5 5 4 4 4 4 4 4 4 3 3 4 4 3 3 2 1 2 1 1 1 1 1 1 0 0 0 1 1 2 2 1 2 3
1 2 2 2 3 4 5 2 2 2 2 1 2 4 1 2 3 3 7 3 4 2 4 5 6 9 10 12 13 13 13 15 13 11 13 9 8 11 11 10 9 10 10 9 8 8 8 8 10 12 10 10 9 8 6 7 7 7 7 7 6 5 5 5 4 5 5 5 4 4 4 4 5 5 4 3 4 4 3 2 2 2 2 2 1 2 2 1 1 0 0 0 1 1 2 2 2
3 1 3 4 2 4 2 1 2 1 1 0 3 1 0 1 1 7 1 1 5 5 5 3 7 11 12 10 10 10 13 14 15 12 7 6 8 12 12 10 11 11 9 9 9 8 7 9 9 10 10 9 8 9 7 7 6 7 7 7 6 6 5 4 5 5 5 5 5 5 4 4 5 4 4 4 3 4 3 3 3 2 2 3 2 3 1 2 1 1 1 1 1 1 2 0 1
3 2 0 3 5 4 4 0 1 0 0 2 3 1 1 2 1 9 1 1 3 8 5 5 5 7 10 10 10 10 10 11 8 8 13 11 11 11 12 11 11 10 10 10 8 7 7 9 9 10 9 9 9 9 7 7 7 7 6 6 8 7 5 5 5 5 5 5 4 5 5 5 4 4 4 4 4 4 4 4 4 3 4 3 3 3 3 1 1 0 0 0 0 0 2 2 0
0 2 2 3 3 3 2 2 1 1 0 2 2 1 0 0 5 5 1 2 2 4 6 6 7 6 6 6 7 7 11 9 8 10 12 12 8 9 12 11 12 11 8 9 9 8 10 10 10 9 9 8 9 10 8 8 7 6 6 7 7 6 6 5 5 6 6 5 4 5 5 5 5 5 5 5 5 5 4 5 3 5 4 3 2 2 1 1 1 0 1 0 1 1 2 3 3
0 4 2 3 4 5 4 1 2 1 1 2 1 4 6 7 14 1 0 5 4 4 5 5 6 5 6 6 7 8 5 5 9 12 10 10 10 9 11 10 11 11 9 8 8 11 9 7 8 8 9 9 10 8 8 7 7 7 6 6 6 6 6 6 6 6 5 5 5 5 5 5 5 4 4 4 4 5 5 5 5 5 4 3 2 2 3 2 3 1 3 0 2 1 2 2 3
2 1 2 1 0 4 2 1 2 1 1 1 1 3 6 7 9 1 1 4 8 7 6 6 7 6 6 6 7 8 8 8 12 11 10 10 8 7 9 7 9 10 8 8 12 12 10 9 8 7 9 10 9 9 9 8 7 7 7 6 6 7 6 7 6 5 5 6 5 5 5 5 5 5 5 5 5 5 5 5 5 6 3 3 3 3 3 3 3 5 3 3 2 1 1 2 1
1 2 3 1 5 4 7 1 2 2 1 3 3 3 7 10 4 3 1 3 5 7 7 7 7 7 7 6 8 8 9 8 7 5 8 8 7 8 8 10 9 9 11 11 10 8 10 9 9 9 9 11 11 11 9 8 8 7 7 6 6 6 6 6 6 6 6 6 6 6 6 6 6 6 5 5 5 5 5 5 6 4 4 4 3 3 3 4 4 4 3 3 3 4 2 3 0
3 4 1 1 2 3 7 2 0 3 1 2 3 5 3 6 2 2 1 4 4 6 5 6 7 6 6 7 7 8 7 7 6 9 9 9 8 9 9 9 10 11 11 10 10 9 10 10 10 11 11 12 11 10 10 8 7 7 7 7 7 7 7 7 7 6 6 6 6 6 6 6 6 6 6 6 5 5 5 5 5 5 4 5 5 4 5 4 4 3 3 3 3 4 2 4 5
1 1 2 3 5 3 4 6 1 1 1 3 1 2 5 7 3 2 2 4 3 5 7 6 5 5 6 6 6 8 8 8 11 11 13 11 10 11 9 9 9 9 9 9 9 11 12 10 10 11 9 10 10 10 10 9 8 7 6 7 6 7 8 7 7 6 6 6 6 7 6 7 6 7 7 6 6 6 6 5 5 4 5 5 5 4 5 3 3 3 3 2 3 3 4 4 5
6 4 4 4 2 5 5 6 1 2 0 4 1 4 7 12 12 7 1 3 5 8 7 5 6 6 7 7 7 8 9 9 13 12 12 11 10 9 9 8 8 8 8 9 9 9 8 9 8 9 10 9 9 9 9 8 8 7 6 7 7 7 6 6 5 6 6 6 7 7 7 7 7 7 7 7 7 6 5 5 5 5 5 4 4 4 4 3 3 4 4 5 3 3 3 3 4
13 11 8 4 5 5 7 5 1 3 2 4 4 6 7 13 16 9 1 3 6 7 4 5 6 6 7 8 8 8 10 13 13 9 7 7 8 8 9 8 8 8 8 8 9 9 9 8 7 7 9 9 7 7 7 7 7 8 8 6 7 8 7 6 5 6 5 7 6 7 6 7 6 7 7 7 7 6 6 5 6 4 5 4 4 4 4 5 6 5 5 3 2 2 3 4 3
4 4 4 6 6 3 1 3 2 0 1 5 7 6 7 11 13 6 1 1 2 4 6 8 9 8 7 8 9 10 10 16 8 6 6 7 9 9 9 7 8 7 8 8 10 10 10 10 9 12 10 9 9 8 8 9 9 8 8 10 10 7 7 6 7 7 7 7 6 6 7 6 6 7 6 6 6 6 6 4 4 3 4 5 5 5 6 6 5 3 3 3 3 2 2 3 2
8 6 5 6 4 4 3 3 1 3 3 3 1 3 9 11 15 11 1 1 6 8 8 8 11 10 7 7 10 11 14 7 6 6 5 7 9 9 9 9 8 10 11 11 13 13 12 12 13 12 9 10 10 10 10 10 10 9 8 8 6 6 6 7 8 6 7 6 6 7 7 7 7 7 7 7 6 6 6 5 5 6 5 5 6 5 3 3 3 4 3 2 2 3 2 1 1
5 7 5 3 6 2 6 1 1 1 2 7 2 3 8 10 14 16 5 8 6 6 9 9 10 8 8 9 10 11 7 12 8 9 7 8 9 9 10 10 10 13 12 14 14 12 12 12 12 11 10 10 10 10 10 11 9 9 9 7 8 5 5 7 7 7 7 8 8 8 8 8 8 7 7 7 6 6 6 6 6 6 6 6 5 4 4 5 5 5 5 4 2 2 3 2 3
6 4 5 7 3 6 6 2 1 1 2 2 0 1 8 10 10 14 7 8 7 7 7 10 7 8 10 14 13 9 9 12 14 13 11 10 9 8 8 9 12 12 13 12 11 13 12 12 12 12 11 10 10 11 11 10 9 8 8 7 7 9 7 6 7 7 7 7 8 7 7 6 6 7 8 8 7 6 6 7 6 5 6 5 6 6 5 5 4 5 5 6 5 2 2 2 2
1 6 4 4 2 2 3 3 2 0 1 1 1 6 8 7 10 10 3 3 5 7 5 6 7 8 9 4 4 8 13 13 13 12 9 8 9 12 13 13 9 11 12 13 13 13 11 15 14 13 11 11 11 11 12 9 6 5 5 2 2 3 1 3 6 7 8 7 8 8 8 6 7 7 6 7 8 9 8 7 6 6 6 7 5 6 6 7 7 6 6 4 5 6 4 3 1
3 3 6 5 4 3 1 2 2 6 4 1 1 2 7 4 8 11 8 4 4 4 6 10 11 8 6 8 12 9 9 10 13 15 12 8 10 9 8 8 10 12 13 14 13 15 14 13 13 12 11 11 12 11 11 9 10 10 9 8 8 7 8 8 10 11 8 8 9 5 6 8 7 6 6 6 6 5 7 8 9 8 6 6 6 7 8 7 6 6 6 7 7 5 6 4 2
7 7 9 6 5 4 1 1 2 0 2 1 1 7 7 5 5 5 5 3 9 6 3 8 8 8 6 10 11 11 12 13 11 12 9 7 10 8 10 11 14 14 15 12 11 13 14 12 12 13 13 12 11 10 11 11 10 10 13 13 12 12 11 9 8 5 7 6 5 6 6 7 8 8 7 7 6 6 6 6 6 7 7 7 6 5 4 5 7 8 7 6 6 4 3 4 4
5 2 10 6 5 5 4 3 4 4 1 2 0 3 4 7 10 3 2 3 7 8 9 9 9 8 9 10 12 12 12 12 11 12 11 9 9 10 14 15 13 16 14 10 12 12 13 14 13 14 12 11 11 10 12 13 13 12 12 12 12 12 12 12 9 7 5 5 7 7 6 6 7 8 8 7 7 7 7 6 6 6 6 7 7 8 8 7 5 4 5 6 5 5 6 6 5
4 4 9 7 7 6 3 3 3 2 1 9 1 0 1 7 6 3 0 6 6 8 9 9 9 10 10 12 13 12 12 11 8 10 12 11 12 13 14 12 13 11 9 12 13 13 13 12 13 11 12 11 10 12 12 13 12 12 12 11 12 10 10 9 5 6 7 6 7 6 7 6 7 7 7 8 8 8 7 7 7 7 7 7 6 5 6 5 5 5 5 5 6 5 5 5 3
3 4 6 5 5 4 3 3 3 2 1 9 5 4 4 10 3 3 1 3 7 6 8 9 9 10 9 9 10 10 8 7 6 9 11 11 11 11 10 8 5 10 10 9 8 7 8 8 11 12 13 10 10 12 12 12 12 11 12 12 14 11 8 5 6 7 6 6 7 7 7 6 6 6 7 7 7 8 8 7 7 8 7 6 6 8 7 7 8 8 8 8 7 7 6 6 7
5 6 6 3 5 3 3 4 3 2 4 9 5 7 4 8 4 8 7 8 6 8 6 6 6 7 10 9 7 7 7 7 7 8 10 11 9 8 5 10 11 6 6 7 8 9 9 10 11 12 14 10 11 12 13 14 12 12 13 13 14 13 11 9 7 7 6 6 8 7 7 6 6 6 6 6 7 7 7 7 7 7 7 7 7 6 8 9 6 5 5 5 5 6 7 7 5
8 2 5 5 1 3 2 1 2 3 7 3 2 2 5 8 4 7 5 2 4 8 7 8 8 8 9 5 6 6 5 6 6 6 10 9 8 8 5 9 8 7 5 8 9 8 9 10 11 13 12 12 11 12 13 13 13 14 13 14 14 13 11 10 12 11 10 10 8 8 6 5 6 5 5 6 6 7 7 7 7 7 7 6 7 7 5 4 5 5 4 5 5 5 3 4 4
4 6 6 7 2 2 3 0 4 8 5 0 0 1 1 16 5 5 4 8 7 6 8 10 10 10 9 7 5 6 5 6 7 8 8 8 8 8 7 8 5 6 9 9 9 9 9 10 12 13 14 13 13 12 14 15 14 14 14 14 13 11 11 12 12 11 9 10 8 7 7 8 5 6 7 7 7 8 8 7 7 7 7 7 7 6 6 6 5 5 6 6 5 5 6 5 5
8 9 8 8 5 6 8 5 1 4 5 4 1 1 6 3 4 12 12 11 12 12 12 10 9 10 10 8 5 6 7 7 9 8 8 9 7 6 6 6 7 6 7 8 8 8 8 9 10 13 15 12 11 12 14 14 15 14 13 13 12 11 12 11 10 10 9 8 8 9 9 9 8 9 8 9 8 8 7 7 7 7 7 7 7 6 6 5 5 5 6 6 6 5 4 4 5
10 3 9 7 6 6 11 7 12 9 7 1 3 1 8 4 4 2 12 8 5 3 4 5 6 8 10 6 6 9 11 11 7 7 9 8 6 5 6 5 5 5 5 5 5 7 7 9 9 12 11 10 11 13 12 14 13 12 11 11 11 10 10 9 9 8 8 8 8 8 8 7 7 8 8 9 6 7 7 6 7 7 7 6 6 5 5 5 4 3 3 4 3 3 4 4 4
3 3 6 4 13 4 3 3 3 2 2 1 2 7 3 5 4 5 5 6 8 7 8 6 10 9 5 6 8 9 9 9 5 5 7 6 5 5 5 5 5 5 5 5 6 6 7 9 9 11 12 10 10 11 11 12 11 9 9 11 11 9 8 7 6 6 7 8 8 8 8 8 7 7 6 5 6 7 7 7 6 6 5 5 5 6 6 5 5 4 3 3 3 2 5 4 2
5 6 13 6 2 4 5 2 1 2 3 10 3 6 7 7 8 13 3 1 7 6 8 7 10 7 3 7 9 7 8 6 5 5 5 5 4 3 5 5 4 4 4 6 7 7 8 7 7 8 8 6 7 9 9 8 8 7 9 8 7 7 8 9 9 8 8 7 7 7 7 7 6 5 5 5 6 5 6 6 6 5 5 5 5 5 6 7 6 5 4 3 4 3 5 4 4
8 7 10 2 3 4 3 4 2 0 5 7 3 12 4 0 11 2 5 7 12 11 6 2 5 5 6 8 8 8 6 6 5 5 5 6 5 5 5 4 4 4 4 4 5 4 5 6 7 8 7 9 6 7 7 7 8 8 7 8 8 9 9 8 8 8 7 7 5 5 4 5 6 7 6 5 5 6 5 5 5 5 4 5 5 5 4 6 7 5 4 4 3 4 4 2 1
9 7 6 10 7 8 2 3 3 4 5 5 3 2 5 9 10 3 1 6 11 9 9 4 6 5 6 7 8 6 5 6 6 5 4 4 4 4 4 4 4 4 4 4 3 3 3 4 5 6 8 7 7 6 6 5 6 7 7 8 9 8 7 7 7 6 6 7 7 6 7 7 4 5 6 6 6 6 5 5 5 4 4 4 4 4 4 5 5 6 5 4 3 4 3 3 2
2 3 6 1 3 0 6 8 3 6 6 0 8 3 10 7 6 6 6 5 9 7 5 7 9 7 6 6 5 6 6 5 6 5 4 4 5 4 4 3 3 3 3 3 3 2 4 4 4 4 4 4 4 6 7 8 7 7 7 6 6 7 7 7 7 8 7 8 8 8 7 6 7 6 5 6 6 7 6 6 4 5 4 4 5 4 4 5 4 4 5 4 3 5 5 4 3
3 4 6 2 0 2 5 1 4 4 4 5 1 5 7 5 9 12 13 11 10 9 11 8 7 6 5 5 5 5 6 6 6 5 5 5 4 4 3 3 3 1 1 1 2 4 3 3 4 4 6 5 6 6 6 6 6 7 7 8 8 7 7 6 6 7 8 7 7 7 7 6 6 6 6 7 6 6 7 6 6 5 6 5 6 4 3 5 5 6 5 4 4 4 6 4 5
6 6 6 7 8 5 8 9 3 2 3 4 3 10 5 4 2 10 11 11 9 12 12 7 5 5 5 4 5 5 6 7 6 5 5 5 4 3 3 2 1 1 1 2 1 2 2 3 3 3 3 4 4 4 5 5 5 5 6 6 6 4 6 6 7 6 6 6 6 6 6 7 7 5 6 7 7 6 5 7 6 6 5 5 5 6 4 5 6 7 4 3 4 5 6 4 3
Wind_Direction
345 339 320 67 53 106 52 359 134 319 59 272 343 35 188 329 238 77 127 40 139 259 217 77 135 120 179 206 175 165 209 135 198 131 212 232 167 109 127 128 129 127 140 153 170 212 117 47 133 113 114 114 117 120 125 124 116 98 107 98 98 93 93 92 90 94 92 89 91 92 93 88 88 88 86 85 86 87 88 88 87 86 82 81 81 82 82 79 78 79 77 76 76 78 77 77 76
13 336 9 8 352 38 299 114 96 354 36 45 237 114 242 285 76 188 165 193 205 166 174 110 93 105 62 86 111 121 30 351 172 159 78 136 99 94 144 137 140 141 139 139 125 133 88 51 118 119 119 119 121 125 121 115 110 97 94 95 98 108 107 98 99 93 84 89 93 94 89 86 84 82 83 85 85 84 87 90 90 86 86 81 80 82 82 81 78 78 78 77 79 81 81 80 78
13 5 328 26 25 71 89 34 309 70 72 271 277 209 332 144 179 204 212 218 182 132 144 113 117 70 359 25 59 48 220 81 123 221 117 133 133 159 148 135 134 133 130 129 132 112 105 80 117 124 127 128 121 122 123 126 120 117 114 108 103 106 103 101 100 96 97 90 95 90 85 88 90 90 87 83 82 83 82 87 89 83 83 84 82 81 81 79 77 76 75 77 81 83 82 79 77
93 48 101 64 277 38 55 24 91 123 135 209 315 281 205 177 210 206 245 181 144 104 300 29 68 260 88 55 173 98 71 131 189 145 140 166 165 137 147 137 125 119 105 116 123 112 83 67 123 127 130 129 125 121 127 124 128 118 115 108 95 85 89 105 106 98 100 108 94 95 93 90 86 83 84 86 86 85 86 89 90 90 87 83 81 80 81 81 79 77 77 78 78 79 81 79 79
58 329 79 99 101 10 101 120 137 105 351 201 146 275 257 207 182 191 152 166 180 109 31 126 80 346 219 132 149 150 221 32 158 184 134 107 116 139 135 129 123 122 124 130 119 103 74 104 127 131 129 128 128 123 128 131 126 117 109 103 103 98 100 106 103 103 103 97 96 94 93 91 91 88 86 86 85 86 87 91 96 94 89 86 85 82 80 80 81 79 78 77 79 77 78 80 81
56 40 358 78 14 166 59 66 22 207 213 151 222 232 222 209 169 177 163 211 248 263 195 113 163 183 42 306 176 116 178 144 189 249 156 148 136 142 139 130 126 126 135 127 120 99 95 98 135 137 131 131 132 132 131 129 127 122 117 119 117 104 100 99 102 99 92 92 96 93 93 90 90 92 89 86 84 84 85 88 92 90 87 84 83 82 80 82 81 80 80 80 80 81 81 81 80
322 41 360 27 31 51 164 139 224 196 276 162 214 226 196 201 195 139 169 114 270 56 162 169 114 115 70 297 24 245 235 164 144 185 132 139 129 138 139 132 130 135 139 136 125 102 113 105 123 131 130 136 137 136 132 129 129 127 121 121 106 107 103 105 101 101 100 97 90 93 92 94 89 89 89 88 89 88 86 89 95 94 85 84 86 84 81 79 80 80 79 80 81 83 82 83 82
57 130 325 112 268 42 63 171 236 160 266 168 216 239 214 173 152 158 176 132 208 195 65 148 256 101 224 44 167 254 354 269 149 115 117 133 136 137 139 139 136 144 143 143 126 126 118 105 115 138 138 139 136 134 134 133 131 127 128 126 126 121 114 107 108 105 104 102 101 100 97 92 96 94 92 91 91 91 91 91 95 93 89 85 87 84 82 82 83 84 85 85 85 85 87 86 87
2 83 266 72 79 37 55 234 258 242 283 292 278 226 248 163 154 144 169 229 28 151 147 192 253 95 223 54 146 274 307 344 124 119 133 135 141 144 142 145 147 149 150 149 136 128 123 115 114 131 143 138 138 140 140 135 128 128 122 119 128 123 102 115 107 104 99 101 103 102 104 102 101 99 98 97 95 92 93 91 94 96 94 94 90 88 85 82 84 90 90 89 88 89 89 89 89
40 45 264 128 127 233 2 297 126 235 222 232 238 233 159 154 163 133 156 130 199 132 193 272 218 98 138 138 336 352 65 109 129 121 139 145 145 144 148 151 153 150 153 152 142 138 140 123 105 124 131 127 134 141 140 138 138 128 124 128 130 119 107 103 106 98 109 111 110 112 105 106 100 94 94 94 94 93 96 99 96 96 96 98 99 92 88 84 88 91 91 90 89 89 88 89 91
332 16 128 92 34 90 209 263 268 310 259 304 284 236 167 132 136 156 125 173 118 151 210 235 30 121 98 249 214 256 270 154 142 152 153 148 148 149 145 143 150 157 155 153 146 140 135 123 112 113 126 130 123 123 126 140 144 137 131 133 130 129 122 121 105 98 100 111 118 124 120 112 100 98 98 91 90 96 94 98 98 92 91 94 100 94 88 86 88 90 87 86 85 85 87 88 89
334 20 9 96 166 160 234 196 270 281 297 322 241 151 189 137 109 141 173 133 203 163 177 165 207 143 61 15 295 329 120 180 170 151 152 147 149 147 140 140 151 160 161 151 140 134 132 125 116 106 115 121 123 124 105 97 139 131 136 138 133 132 131 131 110 102 106 105 105 111 116 111 104 100 94 90 87 91 88 87 89 93 94 103 100 95 84 81 86 86 86 85 82 82 83 85 87
106 95 74 97 221 159 193 321 266 311 322 281 174 197 137 124 179 180 159 102 126 136 284 209 138 76 132 173 257 315 173 201 182 152 150 152 145 135 131 137 151 158 157 151 137 138 134 128 118 108 113 108 111 120 102 89 113 129 138 137 135 134 134 133 127 109 109 111 110 111 107 101 100 99 89 87 85 87 85 84 95 99 100 100 97 94 87 81 84 85 80 80 78 77 79 83 86
114 179 131 206 54 117 146 226 327 332 287 248 267 126 167 130 228 162 129 144 211 168 270 185 146 132 91 5 278 193 208 186 175 155 145 136 129 131 136 140 155 161 161 155 148 144 139 129 116 116 111 102 108 120 112 105 111 119 123 123 126 130 130 103 91 99 105 109 100 91 92 94 95 89 85 83 80 77 76 76 89 101 107 106 108 97 87 72 74 79 77 76 73 71 73 80 86
89 146 84 111 66 75 244 113 239 158 257 221 203 138 162 234 117 133 156 159 232 218 311 99 174 126 226 159 268 205 188 178 159 153 136 122 122 127 133 145 155 160 163 162 153 147 147 139 125 124 118 112 112 117 120 119 116 118 118 117 108 109 105 108 108 105 106 104 99 95 92 93 93 90 86 86 83 82 77 71 72 96 114 113 113 106 85 62 61 63 68 69 67 65 62 65 73
141 85 81 133 214 160 252 190 101 87 266 186 329 153 128 15 175 124 241 150 208 295 137 192 60 198 206 162 243 189 152 146 151 143 133 127 120 115 131 145 157 164 171 162 161 164 150 151 142 125 132 123 116 117 120 123 128 126 127 121 116 116 115 117 117 114 112 107 105 101 98 93 88 87 89 81 84 84 82 82 75 77 114 120 110 109 86 61 63 64 66 63 57 56 56 54 52
59 78 89 42 217 167 241 169 153 237 247 262 290 165 163 191 256 332 73 94 120 182 247 259 201 32 173 197 256 166 134 132 139 143 140 132 133 131 138 152 153 161 171 173 170 172 169 155 151 137 144 131 126 133 121 123 114 123 124 129 126 125 125 123 118 113 110 112 108 106 98 94 94 95 88 93 87 87 88 81 79 72 68 89 109 108 74 59 62 63 64 61 57 56 55 50 40
68 97 112 193 201 144 210 187 192 198 36 283 241 237 153 191 170 176 107 36 70 89 244 307 319 322 239 274 280 136 132 139 157 154 154 143 152 155 164 168 166 178 172 177 195 183 175 180 156 155 147 144 138 136 134 131 130 129 131 127 128 128 122 120 117 121 113 112 114 108 108 108 106 103 103 101 96 94 90 92 88 87 84 75 78 86 62 56 55 57 57 55 53 51 50 51 37
91 103 110 220 165 235 161 213 193 107 295 219 220 252 228 209 139 205 143 243 118 134 260 16 288 313 36 87 124 132 141 149 166 168 164 163 167 166 169 170 182 174 183 180 194 187 184 189 170 165 162 159 152 148 145 138 144 143 139 138 137 136 136 128 133 122 122 124 117 116 114 111 107 95 108 111 101 88 88 98 97 93 88 81 71 54 38 29 45 50 50 47 45 42 47 40 40
194 120 194 252 215 273 241 251 274 216 254 285 242 215 139 260 161 131 195 164 103 194 199 283 242 222 154 132 141 145 148 161 173 176 174 173 173 168 170 178 184 190 184 181 182 189 185 192 189 169 172 166 164 165 151 154 152 148 153 149 144 144 136 141 139 140 141 139 133 125 118 105 94 87 94 99 99 88 81 68 77 78 76 62 52 50 22 30 33 47 44 44 35 28 49 55 41
287 99 185 279 219 327 24 152 287 298 316 292 172 44 163 260 205 151 155 120 244 259 233 187 200 194 164 161 155 155 154 166 180 184 182 180 181 184 184 185 186 186 183 166 174 188 191 193 192 183 169 167 174 170 160 167 158 157 160 160 159 159 155 145 149 153 156 150 144 131 127 108 117 120 100 79 87 97 84 66 54 48 45 59 35 49 25 3 22 10 14 32 38 21 23 24 60
85 194 185 167 256 251 264 56 257 318 313 300 248 142 221 98 71 157 156 179 213 210 223 217 203 168 157 161 167 162 163 173 185 190 191 186 185 185 184 181 164 165 160 183 190 189 192 189 186 192 178 181 186 182 183 170 156 165 176 173 169 173 166 167 165 168 167 164 151 139 122 113 127 128 119 113 120 134 136 132 46 34 47 73 40 40 36 32 29 32 29 31 15 28 48 10 20
194 295 227 196 209 256 256 314 203 107 305 215 160 227 100 162 198 179 180 204 227 290 243 193 187 178 170 154 154 167 171 180 188 196 192 191 190 189 187 179 177 176 183 199 187 191 189 189 188 193 193 190 192 179 186 171 178 171 167 168 171 182 175 175 184 181 184 171 160 152 144 143 146 152 146 160 162 163 168 181 185 65 86 92 59 56 48 37 49 50 39 28 352 17 26 5 14
113 213 152 261 178 253 251 274 269 257 171 224 219 25 180 164 210 149 205 223 9 317 286 175 134 128 145 155 173 172 180 183 192 195 195 195 191 190 186 182 186 183 186 192 190 190 188 191 191 194 195 195 196 186 191 196 198 190 187 176 191 186 178 191 190 188 174 177 173 173 163 162 164 167 178 180 190 178 201 192 164 189 184 221 115 104 106 78 68 64 49 24 20 19 5 350 1
127 189 167 260 269 238 276 259 254 213 236 266 231 169 231 188 188 108 242 230 301 359 68 115 128 136 160 169 176 183 183 189 192 194 195 201 200 193 192 190 186 183 197 194 189 189 194 190 187 195 194 197 195 184 190 196 196 200 189 185 196 188 195 195 187 175 181 181 181 176 167 163 168 172 181 195 173 202 192 182 176 210 229 222 171 214 159 149 89 75 59 24 21 14 334 358 351
149 208 177 254 274 295 288 324 97 99 320 134 159 249 311 228 121 253 242 228 184 104 79 112 132 144 169 185 186 181 186 192 192 188 195 191 191 192 197 193 191 197 203 198 190 196 189 184 188 194 194 198 197 189 193 191 196 201 198 195 198 189 206 193 173 187 189 176 189 187 185 176 180 180 190 179 179 203 205 189 202 220 224 227 193 238 198 158 203 76 18 21 7 4 344 353 22
146 198 215 222 260 316 271 347 294 304 161 144 193 239 328 315 145 257 6 218 136 106 126 142 154 171 182 184 191 194 188 193 193 190 179 184 193 198 197 194 196 203 195 203 202 201 187 180 191 192 193 189 189 193 189 189 184 203 199 194 197 201 195 182 192 189 188 193 189 183 190 191 185 189 186 185 196 197 192 190 219 214 235 225 196 234 166 178 163 204 262 279 313 329 304 271 21
146 186 35 306 314 265 279 215 311 41 62 153 167 199 277 313 81 239 202 187 181 142 155 169 188 187 188 190 191 196 200 201 188 179 195 189 198 196 197 196 198 200 200 204 202 198 190 193 191 191 191 187 190 197 192 190 193 201 194 195 203 202 188 197 197 191 198 196 186 186 190 197 194 198 189 187 193 192 197 201 210 195 231 227 201 224 219 191 182 169 148 156 184 154 314 313 258
177 165 216 263 325 319 328 340 48 93 245 137 158 124 318 292 225 254 196 124 124 148 166 182 195 197 202 202 199 200 208 194 186 199 205 204 199 197 201 197 195 201 204 202 203 197 200 195 197 196 190 187 192 196 196 198 197 195 193 198 201 193 196 197 202 202 200 192 187 188 192 193 195 197 198 193 193 195 196 198 204 216 225 217 208 225 228 193 178 255 311 39 24 19 356 329 341
103 37 118 319 356 309 321 308 33 129 250 97 276 251 260 237 237 245 183 126 107 133 184 199 204 204 206 202 203 214 214 194 209 211 204 203 200 198 204 198 197 200 196 198 199 209 201 197 195 195 194 194 196 198 197 200 200 197 196 199 199 191 196 198 208 204 197 191 189 192 192 193 194 198 188 198 188 193 195 199 207 225 222 199 190 186 214 205 214 200 239 315 309 338 301 296 344
168 199 75 177 62 256 302 54 355 153 15 78 100 216 277 267 259 210 157 151 154 189 206 203 208 208 205 206 212 216 218 212 215 213 210 209 204 202 208 200 199 198 190 194 202 204 196 197 190 200 193 199 196 202 201 204 200 197 195 196 195 193 193 200 205 201 198 199 188 195 193 194 197 195 193 187 193 189 193 205 210 225 197 181 187 193 198 211 198 214 192 219 259 291 295 279 282
37 106 258 3 179 281 299 187 170 191 353 21 133 285 246 263 261 234 231 169 173 201 206 213 212 213 209 208 217 221 223 221 235 237 227 220 207 209 202 207 199 199 199 201 204 192 199 201 193 198 192 199 200 201 202 204 203 200 199 196 194 193 194 201 203 201 202 197 192 198 195 196 194 195 191 186 189 194 196 203 217 209 186 169 181 173 171 209 212 219 218 194 244 275 306 290 7
9 127 310 293 107 257 343 320 229 135 106 358 156 228 327 301 315 332 349 164 186 210 220 218 222 222 219 220 220 224 230 238 235 231 228 215 215 212 209 205 203 205 204 203 200 195 202 201 198 201 198 201 202 200 202 204 201 203 200 198 199 193 199 203 204 202 200 196 197 202 197 197 198 195 193 189 191 196 200 206 218 197 173 177 173 176 193 207 191 214 222 217 207 258 253 276 296
156 3 184 202 183 197 236 292 319 199 149 231 119 194 241 247 271 308 22 155 158 223 231 231 230 226 229 234 233 228 229 230 231 224 225 214 215 213 212 207 206 205 211 210 204 199 203 198 199 202 204 202 202 201 201 203 203 201 201 202 199 203 207 205 204 196 203 201 196 205 200 198 200 199 195 191 198 202 201 205 208 181 175 177 183 175 211 179 190 187 238 197 199 209 259 266 279
174 190 203 271 248 211 213 185 243 105 20 203 235 219 260 276 274 267 171 151 175 225 227 236 229 230 235 235 235 235 233 232 235 227 224 217 218 217 214 210 207 205 208 209 210 210 209 204 198 202 203 200 203 203 202 203 201 204 205 203 206 212 212 212 202 204 208 202 203 204 201 198 200 200 198 191 197 198 199 201 200 193 178 183 185 199 198 181 180 184 206 237 186 217 227 239 251
184 178 190 152 164 221 213 245 295 165 241 261 223 212 236 251 266 264 105 167 187 231 253 260 243 231 228 230 236 235 234 240 241 233 226 215 216 215 214 211 210 208 207 205 211 213 212 207 202 203 205 200 197 202 195 201 201 204 204 208 215 214 209 206 207 212 206 212 209 204 202 200 196 198 198 194 198 194 193 196 204 186 187 176 185 195 213 201 205 210 239 226 227 245 225 247 233
148 147 147 197 191 266 281 271 278 94 52 243 236 258 254 247 253 268 153 94 251 265 247 239 243 234 227 229 231 236 238 237 239 230 218 210 214 214 214 206 213 211 210 206 209 213 211 207 195 209 203 195 193 196 198 199 205 209 209 210 214 208 207 204 210 209 209 215 211 209 205 201 195 192 193 186 196 194 199 193 188 183 181 185 190 212 214 215 210 186 181 172 204 249 281 230 217
151 160 161 217 175 225 243 210 5 321 159 301 6 255 262 267 277 263 211 119 244 224 232 248 245 236 233 232 240 235 238 271 277 261 230 215 216 212 205 207 203 209 215 208 210 211 209 207 209 211 196 196 199 197 199 204 208 208 204 215 208 202 200 205 216 208 212 210 209 210 210 205 199 195 190 189 192 190 189 186 191 189 177 194 207 214 205 193 176 183 156 210 193 199 242 229 189
151 167 166 167 239 231 276 252 336 315 109 259 324 258 265 254 256 266 193 223 237 219 203 224 229 239 233 229 239 245 251 254 254 246 229 223 221 217 206 208 209 212 215 213 214 209 209 211 215 211 204 196 200 199 198 207 207 208 204 208 200 203 206 207 212 209 202 207 209 209 208 206 200 201 191 191 194 193 195 189 198 196 191 188 195 205 203 198 194 200 188 199 205 203 216 226 177
155 129 158 199 235 159 246 277 65 16 159 269 84 280 279 277 266 268 239 211 236 233 218 233 218 228 226 226 224 232 240 250 251 240 230 220 214 214 213 213 211 206 214 216 211 213 213 214 212 210 206 198 198 201 203 205 202 201 208 205 199 201 202 198 205 211 208 206 215 208 211 204 199 204 195 190 195 196 194 199 198 194 201 188 190 200 202 226 204 192 188 207 201 226 203 265 191
192 171 152 156 138 226 165 221 291 315 9 77 316 313 279 247 272 283 264 266 271 271 256 261 252 234 242 284 288 223 231 234 246 253 239 219 211 215 210 214 205 210 213 211 207 209 211 212 211 207 204 202 201 198 199 194 182 186 187 160 161 196 29 185 206 218 209 204 209 204 208 193 200 202 199 206 199 194 191 195 196 201 196 193 189 200 205 214 212 217 204 193 177 206 236 223 263
215 232 169 179 175 211 302 357 39 20 344 337 183 347 278 275 245 247 267 341 276 256 216 246 247 241 238 246 245 243 242 238 236 243 239 221 219 227 220 210 207 215 215 214 206 210 210 211 207 206 206 205 205 200 190 184 191 187 185 191 188 195 208 201 204 207 198 201 209 188 192 193 195 201 201 202 207 209 202 196 195 197 201 199 200 204 205 203 207 198 202 200 205 202 218 213 223
172 240 170 176 168 155 126 26 76 267 243 295 29 207 273 321 285 243 275 291 263 283 254 254 252 252 234 234 241 238 233 243 240 250 252 229 226 221 223 214 213 214 220 209 206 212 210 208 203 203 206 207 202 196 184 186 195 198 198 201 202 205 213 221 217 206 205 202 181 193 192 184 192 195 201 201 206 205 207 202 200 200 200 198 196 202 220 213 211 208 199 190 210 206 168 222 212
219 219 162 176 157 167 207 161 162 229 277 297 102 160 246 279 255 250 252 304 277 284 268 257 254 243 237 234 238 239 237 235 237 240 242 233 233 215 224 219 213 216 214 198 211 209 205 206 201 204 206 204 199 192 188 191 198 199 201 207 207 210 210 218 204 202 188 176 189 195 184 186 189 194 195 198 204 203 203 206 202 202 202 204 194 203 208 216 219 225 196 203 202 189 178 198 224
215 183 154 177 173 193 157 142 197 232 21 278 320 250 262 248 272 269 182 271 269 259 262 262 254 245 236 236 239 240 243 243 237 249 248 236 229 226 227 225 221 222 207 206 209 205 204 204 204 203 206 203 199 191 192 197 200 197 202 204 212 218 213 217 188 179 184 181 193 188 191 187 186 192 195 195 198 201 200 206 204 207 205 203 189 205 222 213 208 203 194 184 183 203 195 208 203
267 136 75 74 69 60 123 157 171 299 140 252 202 189 220 273 261 274 338 225 254 262 259 252 241 242 243 242 248 247 254 260 247 243 254 251 241 238 232 244 249 221 216 214 215 207 206 199 202 203 209 202 196 194 195 196 198 196 202 207 211 213 207 203 175 185 185 179 194 193 191 189 187 188 195 198 197 201 202 204 207 207 207 207 201 203 204 212 213 209 203 200 195 198 199 196 205
124 101 81 47 46 74 36 75 98 52 249 257 187 207 164 294 225 193 186 220 186 232 272 273 262 256 254 244 249 250 247 252 250 250 254 255 253 252 232 225 230 225 209 203 209 205 200 198 199 203 208 200 196 197 192 197 196 198 205 206 209 211 203 194 189 193 183 179 197 191 188 192 186 196 190 198 198 196 200 199 204 207 204 205 202 206 216 219 213 198 197 191 189 202 204 198 205
135 140 127 123 7 39 45 357 47 196 262 283 336 168 158 219 295 264 246 287 227 198 208 247 267 261 261 243 235 249 256 256 264 268 266 266 278 262 241 240 231 223 200 206 209 202 198 199 196 204 206 200 197 197 196 200 197 203 207 206 208 209 199 195 201 202 189 192 190 187 185 181 200 197 193 197 200 194 195 199 203 204 205 204 210 212 206 197 201 199 195 193 203 207 184 180 193
101 125 118 148 217 121 275 89 228 215 215 226 322 205 57 240 230 273 275 249 250 225 216 222 235 256 263 266 253 264 260 261 262 263 266 273 260 258 241 244 235 217 212 210 209 203 204 203 199 202 209 201 197 194 198 201 201 204 205 207 210 205 204 203 204 206 194 194 187 181 171 193 188 193 202 202 205 195 193 196 194 199 203 203 203 193 205 193 177 187 193 199 198 189 199 191 193
155 159 160 140 158 176 224 212 8 314 277 261 224 167 278 271 271 223 244 255 234 225 225 235 240 246 259 269 289 282 272 260 262 262 265 264 261 263 254 245 231 226 219 212 209 204 203 206 205 206 213 200 198 196 200 202 206 207 204 205 207 201 207 203 204 204 197 193 185 190 189 192 191 199 197 206 205 195 194 198 193 196 202 202 197 196 189 182 181 184 188 190 195 197 179 186 198
190 91 159 185 172 172 201 182 203 209 201 195 279 91 231 116 247 250 232 245 291 291 244 248 258 260 265 284 283 276 274 269 250 255 255 258 262 260 263 254 249 239 230 221 211 207 199 205 204 211 213 204 197 201 200 205 209 206 204 206 206 202 204 200 203 199 189 187 191 194 198 190 190 200 199 208 194 193 196 189 191 196 195 192 184 179 167 161 164 163 174 186 173 158 167 169 191
225 175 63 150 224 102 148 208 125 185 210 289 210 208 190 183 259 267 229 272 279 283 276 260 266 261 270 288 272 264 263 268 265 265 275 272 263 269 270 266 257 247 236 224 216 207 204 209 206 210 211 205 202 201 205 206 207 201 202 202 204 198 197 193 194 192 193 188 190 193 197 192 198 194 201 188 194 188 186 187 186 189 181 174 168 165 151 146 136 131 119 135 143 158 146 137 126
206 108 203 209 30 93 84 43 24 81 53 252 133 300 278 302 306 272 226 279 272 256 258 246 251 266 312 273 269 271 270 283 308 286 279 291 297 268 247 259 261 251 241 223 218 207 208 205 206 213 216 210 201 204 207 204 203 195 201 198 190 188 188 192 194 191 191 192 190 195 192 197 189 183 186 187 177 188 182 179 179 179 175 169 165 163 162 143 127 126 142 138 151 159 123 138 158
104 187 212 128 100 100 132 219 346 105 199 261 109 234 275 138 272 306 278 250 260 255 245 281 284 280 282 266 268 268 284 288 277 265 260 263 268 274 275 254 240 237 233 245 240 230 218 211 205 207 206 208 206 195 199 197 194 195 189 191 191 192 192 195 190 189 189 182 187 182 173 160 190 191 172 172 166 174 173 168 172 183 177 165 171 167 169 141 137 138 151 165 157 148 147 135 113
166 194 189 142 211 221 271 104 221 179 231 272 298 310 265 208 230 348 338 218 247 258 267 270 278 267 247 260 272 289 292 304 299 289 285 286 277 271 259 257 252 244 241 240 256 229 221 218 215 208 210 209 200 191 188 191 189 192 189 191 190 191 191 191 192 186 173 179 183 181 184 188 161 150 153 157 165 163 163 169 169 172 162 157 144 147 132 122 140 139 140 148 133 130 119 105 83
62 90 159 245 98 80 141 198 165 125 237 76 283 29 253 186 213 190 267 233 221 247 290 258 243 239 236 247 267 286 300 291 288 285 279 269 271 262 252 248 257 247 240 240 226 197 211 216 199 213 221 202 189 188 186 191 192 187 190 187 193 189 188 187 184 175 178 186 185 181 175 166 179 163 163 157 154 154 157 157 154 150 136 126 118 108 124 129 110 114 123 124 130 113 105 111 95
134 139 183 179 48 237 106 43 144 185 177 182 222 311 266 261 203 179 212 235 251 250 262 239 246 256 256 260 271 282 282 286 277 271 273 273 269 277 279 269 261 263 254 238 171 201 224 193 198 194 190 194 196 200 189 198 182 192 181 188 186 182 183 175 169 177 178 185 180 176 174 166 135 162 150 148 148 153 151 147 145 145 142 143 133 119 103 121 112 104 84 119 120 128 115 100 108
163 155 192 164 116 146 168 233 47 104 145 231 139 257 260 267 162 202 195 220 224 232 232 237 233 254 264 269 272 262 283 281 270 268 266 270 271 278 285 297 302 201 163 176 178 154 205 202 213 199 192 192 190 193 194 183 186 177 184 180 177 173 166 162 168 172 174 171 165 164 152 143 156 152 154 141 140 136 140 143 140 134 125 122 113 104 115 116 115 108 102 100 132 115 110 113 100